Terminal Aerodrome Forecast
Issued by NWS Atlanta, GA

Home | Current Version | Previous Version | Text Only | Print | Product List | Glossary On
Versions: 1 2 3 4 5 6 7 8 9 10 11 12 13 14 15 16 17 18 19 20
000
FTUS42 KFFC 271720
TAFCSG
TAF
KCSG 271720Z 2718/2818 33012G23KT P6SM SCT050
     FM280200 34007KT P6SM SKC
     FM281200 35004KT P6SM SKC=

USA.gov is the U.S. government's official web portal to all federal, state and local government web resources and services.